ONEWEB-0090, 45427

Orbit data source: Space-Track

ONEWEB-0090, 45427 is a payload satellite owned by One Web (UK) in LEO that was launched on Sat, 21 Mar 2020 UTC via a SOYUZ-2-1B launch vehicle from the Tyuratam Missile And Space Complex (TTMTR). Payload-class satellites include a variety of spacecraft equipped with specific instruments for various scientific and technological missions. These include communications satellites like Starlink; space stations such as the ISS; scientific satellites like the Hubble; Earth observation satellites from companies like Planet Labs, Umbra, and HawkEye 360; GPS; miniature CubeSats for education and research; and military/defense satellites.

Loading next visibility...
Identifier
45427, 2020-020D
Orbit
LEO
Last TLE update
19 hours ago
Origin
Manufacturer
One Web
Mission
Operational Commercial Communications
Bus & Motor
ARROW, Unknown motor
Mass
148 kg wet, ~140 kg dry
Launch date (UTC)
2020-03-21 (5 years ago)
Launch vehicle
SOYUZ-2-1B
Launch site
Tyuratam Missile And Space Complex (TTMTR)
Object type
Payload
Rocket body
Debris
Shape & HBR
Trap Box + 2 Pan, 5 m
Radar Cross Section
2.957 m², Large (>1 m²)

Expand to show TLE details & history

TLE from 19 hours ago
0 ONEWEB-0090
1 45427U 20020D   25128.45846314  .00000506  00000-0  13905-2 0  9990
2 45427  87.8811 101.7330 0001994  85.8894 274.2462 13.11415047249624
Epoch: 2025-05-08T11:00Z
Definitive object data (Epoch: 2025-05-08T11:00:11.215Z)
Latitude
0.00001°
Longitude
70.1576°
Altitude
1,220.467 km
Speed
7.244 km/s
True Right ascension
06h 46m 55s
True Declination
0° 00' 00"
Sunlit
Object was in daylight at TLE epoch
Visualization TLE readout
Latitude
85.72924°
Longitude
-139.53316°
Altitude
1,230.011 km
Speed
7.247 km/s
Apparent Right ascension
01h 36m 23s
Apparent Declination
37° 50' 02"
Sunlit
Object is in daylight
Visualization observer readout
Local Sidereal Time
13:56:09
Azimuth
3.989° NNE
Elevation
-12.118°
Doppler factor
1
Orbital elements
Apogee altitude
1,216.322 km
Perigee altitude
1,213.294 km
Semi-major axis
7,592.945 km
Eccentricity
0.0001994
Inclination
87.8811°
RAAN
101.733°
Arg. of periapsis
85.8894°
True anomaly
274.22341°
Mean anomaly
274.2462°
Eccentric anomaly
274.23481°
Mean motion
3.28041 °/min
BSTAR
0.0013905
Orbital period
109.74 mins
Loading maneuver chart data...
Loading SW <> Apogee altitude chart data...
Loading historical data...
Loading historical data...
Loading historical data...
Loading historical data...
Loading historical data...
Loading historical data...
Loading historical data...

ONEWEB-0090 Visibility forecast

Observer location: undefined°, undefined°

Span
Click to sort rows by Start time (UTC) header in descending order
Start Az.
Max El. time (UTC)
Max El. Az.
Max El.
End time (UTC)
End Az.
13 mins2025-05-09 09:34:25.435Z13.452° NNE2025-05-09 09:41:25.435Z88.802° E33.92°2025-05-09 09:47:25.435Z150.305° SSE
11 mins2025-05-09 11:25:25.435Z337.145° NNW2025-05-09 11:30:25.435Z286.706° WNW29.277°2025-05-09 11:36:25.435Z222.676° SW
12 mins2025-05-09 21:54:25.435Z149.26° SSE2025-05-09 22:00:25.435Z72.579° E36.134°2025-05-09 22:06:25.435Z13.557° NNE
10 mins2025-05-09 23:45:25.435Z230.201° WSW2025-05-09 23:50:25.435Z286.098° WNW26.934°2025-05-09 23:55:25.435Z335.811° NNW
|